Weather History for Bridgeport, CT

Change the Weather History Date:

Thursday, November 30, 2000

  Actual Average Record
Temperature  
Mean Temperature 38 °F 41 °F  
Max Temperature 43 °F 48 °F 63 °F (2001)
Min Temperature 34 °F 34 °F 17 °F (1958)
Degree Days  
Heating Degree Days 26 24  
Month to date heating degree days 583  
Since 1 July heating degree days 974  
Cooling Degree Days 0 0  
Month to date cooling degree days 0  
Year to date cooling degree days 825  
Moisture  
Dew Point 35 °F    
Average Humidity 89    
Maximum Humidity 100    
Minimum Humidity 62    
Precipitation  
Precipitation 0.16 in 0.13 in 1.03 in (1957)
Month to date precipitation 3.39  
Year to date precipitation 39.41  
Snow  
Snow 0.00 in 0.10 in 2.10 in (1967)
Month to date snowfall 0.7  
Since 1 July snowfall 0.7  
Snow Depth -    
Sea Level Pressure  
Sea Level Pressure 29.87 in    
Wind  
Wind Speed 8 mph (North)    
Max Wind Speed 18 mph    
Max Gust Speed 26 mph    
Visibility 9 miles    
Events Rain    
T = Trace of Precipitation, MM = Missing Value Source: NWS Daily Summary

Daily Weather History Graph

Daily Weather History Graph

Search for Another Location

Airport:

Trip Planner

Search our weather history database for the weather conditions in past years. The results will help you decide how hot, cold, wet, or windy it might be!

Date:

Astronomy

Nov. 30, 2000 Rise Set
Actual Time 6:57 AM EST 4:24 PM EST
Civil Twilight 6:27 AM EST 4:55 PM EST
Nautical Twilight 5:53 AM EST 5:29 PM EST
Astronomical Twilight 5:19 AM EST 6:02 PM EST
Moon 10:46 AM EST (11/30) 8:27 PM EST (11/30)
Length of Visible Light 10h 28m
Length of Day
9h 26m
Waxing Crescent, 20% of the Moon is Illuminated
Nov 30
Waxing Crescent
Dec 3
First Quarter
Dec 11
Full
Dec 17
Last Quarter
Dec 25
New

Hourly Weather History & Observations

Time (EST) Temp. Windchill Dew Point Humidity Pressure Visibility Wind Dir Wind Speed Gust Speed Precip Events Conditions
12:17 AM 39.2 °F 37.0 °F 39.2 °F 100% 29.91 in 7.0 mi ESE 3.5 mph - 0.01 in Rain Light Rain
12:54 AM 39.9 °F 36.7 °F 39.9 °F 100% 29.88 in 6.0 mi East 4.6 mph - 0.03 in Rain Light Rain
1:12 AM 39.2 °F 35.9 °F 39.2 °F 100% 29.88 in 6.0 mi NE 4.6 mph - 0.00 in   Overcast
1:19 AM 39.2 °F 34.2 °F 39.2 °F 100% 29.88 in 6.0 mi NE 6.9 mph - 0.00 in   Overcast
1:54 AM 39.0 °F 32.8 °F 39.0 °F 100% 29.86 in 6.0 mi NE 9.2 mph - 0.02 in Rain Light Rain
2:54 AM 37.9 °F 32.1 °F 37.9 °F 100% 29.84 in 6.0 mi NNE 8.1 mph - 0.01 in Rain Light Rain
3:37 AM 37.4 °F 31.4 °F 37.4 °F 100% 29.82 in 7.0 mi NE 8.1 mph - 0.03 in   Overcast
3:54 AM 37.0 °F 30.4 °F 37.0 °F 100% 29.80 in 7.0 mi NE 9.2 mph - 0.03 in Rain Light Rain
4:06 AM 37.4 °F 31.4 °F 37.4 °F 100% 29.79 in 7.0 mi NE 8.1 mph - 0.00 in   Overcast
4:26 AM 37.4 °F 31.4 °F 37.4 °F 100% 29.79 in 8.0 mi NE 8.1 mph - 0.00 in   Overcast
4:43 AM 37.4 °F 30.8 °F 37.4 °F 100% 29.79 in 9.0 mi NE 9.2 mph - 0.00 in   Overcast
4:54 AM 37.0 °F 30.4 °F 37.0 °F 100% 29.78 in 9.0 mi NNE 9.2 mph - 0.00 in   Overcast
5:54 AM 37.0 °F 31.0 °F 37.0 °F 100% 29.77 in 6.0 mi NNE 8.1 mph - 0.01 in Rain Light Rain
6:54 AM 37.0 °F 31.0 °F 37.0 °F 100% 29.78 in 7.0 mi NNE 8.1 mph - 0.05 in Rain Light Rain
7:54 AM 37.0 °F 31.0 °F 36.0 °F 96% 29.78 in 10.0 mi North 8.1 mph - 0.01 in   Overcast
8:54 AM 37.0 °F 31.0 °F 37.0 °F 100% 29.80 in 10.0 mi North 8.1 mph - N/A   Overcast
9:02 AM 37.4 °F 31.4 °F 37.4 °F 100% 29.80 in 10.0 mi North 8.1 mph - N/A   Overcast
9:12 AM 37.4 °F 30.8 °F 37.4 °F 100% 29.81 in 10.0 mi North 9.2 mph - N/A   Overcast
9:54 AM 37.9 °F 31.5 °F 37.0 °F 97% 29.82 in 10.0 mi North 9.2 mph - 0.00 in   Overcast
10:08 AM 37.4 °F 30.3 °F 37.4 °F 100% 29.82 in 10.0 mi North 10.4 mph - 0.00 in Rain Light Rain
10:24 AM 39.2 °F 31.6 °F 37.4 °F 93% 29.82 in 10.0 mi North 12.7 mph - 0.00 in Rain Light Rain
10:42 AM 39.2 °F 32.0 °F 37.4 °F 93% 29.82 in 10.0 mi North 11.5 mph - 0.00 in   Overcast
10:54 AM 39.0 °F 31.4 °F 37.0 °F 93% 29.82 in 10.0 mi North 12.7 mph - 0.00 in Rain Light Rain
11:34 AM 39.2 °F 30.5 °F 37.4 °F 93% 29.82 in 10.0 mi North 16.1 mph - 0.00 in   Overcast
11:54 AM 41.0 °F 33.9 °F 37.0 °F 86% 29.83 in 10.0 mi North 12.7 mph - 0.00 in   Overcast
12:40 PM 41.0 °F 33.9 °F 35.6 °F 81% 29.83 in 10.0 mi NNW 12.7 mph - N/A   Overcast
12:54 PM 42.1 °F 34.2 °F 36.0 °F 79% 29.83 in 10.0 mi NW 16.1 mph - N/A   Mostly Cloudy
1:54 PM 42.1 °F 34.2 °F 35.1 °F 76% 29.85 in 10.0 mi NNW 16.1 mph 25.3 mph N/A   Mostly Cloudy
2:15 PM 42.8 °F 35.1 °F 33.8 °F 70% 29.85 in 10.0 mi North 16.1 mph 25.3 mph N/A   Mostly Cloudy
2:24 PM 42.8 °F 34.5 °F 33.8 °F 70% 29.86 in 10.0 mi North 18.4 mph 26.5 mph N/A   Scattered Clouds
2:54 PM 43.0 °F 34.8 °F 33.1 °F 68% 29.88 in 10.0 mi North 18.4 mph 24.2 mph N/A   Clear
3:54 PM 41.0 °F 33.1 °F 33.1 °F 73% 29.91 in 10.0 mi NNW 15.0 mph 20.7 mph N/A   Partly Cloudy
4:54 PM 39.9 °F 35.1 °F 33.1 °F 77% 29.96 in 10.0 mi NNW 6.9 mph - N/A   Partly Cloudy
5:54 PM 39.9 °F 33.4 °F 34.0 °F 79% 30.00 in 10.0 mi WNW 10.4 mph - N/A   Overcast
6:54 PM 39.0 °F 31.4 °F 27.0 °F 62% 30.02 in 10.0 mi NW 12.7 mph - N/A   Partly Cloudy
7:54 PM 37.0 °F 30.4 °F 27.0 °F 67% 30.05 in 10.0 mi WNW 9.2 mph - N/A   Clear
8:54 PM 37.0 °F 31.0 °F 28.0 °F 70% 30.05 in 10.0 mi NW 8.1 mph - N/A   Mostly Cloudy
9:54 PM 34.0 °F 28.0 °F 28.0 °F 79% 30.06 in 10.0 mi WNW 6.9 mph - N/A   Clear
10:54 PM 35.1 °F 31.0 °F 28.0 °F 76% 30.08 in 10.0 mi West 4.6 mph - N/A   Clear
11:54 PM 34.0 °F 26.6 °F 27.0 °F 75% 30.08 in 10.0 mi West 9.2 mph - N/A   Clear